Sign in

Goboko Update

Goboko is set to continue

The Goboko booking system is to continue under a new operator, a member of one of our longest-subscribed flying clubs

The new and previous operators of the site are working to ensure there will be no interruption to your booking service as the transition takes place. Of course, aircraft booking will continue to be free

Thank you for your continued commitment to Goboko

Info

Aviation weather

METAR KDAB 270053Z 17005G14KT 10SM -RA FEW015 SCT020 BKN050 OVC130 23/22 A2991 RMK AO2 RAB2357 SLP129 P0001 T02330222

Aviation weather from ADDS. Re-check weather before flight.

-